STARLINK-35472

Satellite information

Favourite Embed

Satellite Type and Status

PAYLOADIN ORBIT

Key statistics

Satellite STARLINK-35472 at a glance.

Uptime

19

Days in orbit

Revolutions

≈ 15.7

Per day

Orbit

LEO

Low Earth Orbit

Inclination

53.2

Latest

Satellite identification and parameters

Extended collection of information and parameters for STARLINK-35472.

Object identification

Identified? True

Debris? False

Object name: STARLINK-35472

International designator: 2025-225D

Object number (NORAD): 65913

Object ID (CCSDS): 65913

Country: UNITED STATES OF AMERICA (US)

Current information (Y/N): Y

Orbital parameters

Period: 91.469 minutes

Inclination: 53.1604 deg

SMA: 6724.754 km

Apoapsis: 347.18 km

Periapsis: 346.057 km

RAAN: 71.1544 deg

Eccentricy: 0.0000835

Argument of periapsis: 99.0302 deg

Mean anomaly: 261.0812 deg

Mean motion: 15.74302444 rev/day

Mean motion (dot): 0.00291556 rev/day2

B* drag term: 0.0019174795 1/REarth

Two-line elements (TLE)

Creation date: Oct. 27, 2025, 2:46 a.m.

Reference frame: TEME

Reference center: EARTH

Epoch: Oct. 26, 2025, 8:28 p.m. UTC

TLE line 0: 0 STARLINK-35472

TLE line 1: 1 65913U 25225D 25299.85315160 .00291556 00000-0 19175-2 0 9999

TLE line 2: 2 65913 53.1604 71.1544 0000835 99.0302 261.0812 15.74302444 3867

Live tracking on map

Real-time ground track for satellite STARLINK-35472.

In-orbit conjunctions

There are no conjunctions computed for STARLINK-35472, at the moment. Check back to stay up to date, as we update our databases every day.

Go to all conjunctions

Associated space launch

A batch of 28 satellites for the Starlink mega-constellation - SpaceX's project for space-based Internet communication system.

STARLINK-35472 was lifted into orbit during the mission ‘Falcon 9 Block 5 | Starlink Group 11-17’, on board a Falcon 9 space rocket.

The launch took place on Oct. 8, 2025, 3:54 a.m. from Space Launch Complex 4E.

For more information about the launch, click the button.

Launch to space Falcon 9 Block 5 | Starlink Group 11-17
Falcon 9 Block 5 | Starlink Group 11-17

Agency: SpaceX

Status: Launch Successful

Launch date: Oct. 8, 2025, 3:54 a.m. UTC

Rocket: Falcon 9

Launch pad: Space Launch Complex 4E

Location: Vandenberg SFB, CA, USA

...

Latest news about this satellite

News about space launch
Live coverage: SpaceX to launch 28 Starlink satellites on Falcon 9 rocket from Vandenberg SFB

SpaceX will use its second most launched Falcon 9 booster to launch the Starlink 11-17 mission. Liftoff from pad 4E at Vandenberg Space Force Base is scheduled for 8:54 p.m. PDT (11:54 p.m. EDT / 0354 UTC).

News about space launch
Launch Roundup: Falcon 9 to launch five times, Blue Origin to launch crew

SpaceX is set to dominate the launch manifest for the first whole week of October… The post Launch Roundup: Falcon 9 to launch five times, Blue Origin to launch crew appeared first on NASASpaceFlight.com.


Newsletter sign-up

Weekly statistics, charts and insights to help you stay on top of the space industry.